RH
78 73 72 72 85 82 86 88 84 80 78 77 79 78 78 80 88 90 87 91 94 95 87 91 90 90 96 100 97 94 94 95 94
77 74 72 70 69 67 80 88 90 85 79 81 72 69 87 85 89 94 95 92 94 93 95 90 90 92 93 95 96 94 94 95 94
70 69 72 79 86 89 93 85 86 88 86 78 79 73 77 84 89 91 96 94 94 94 95 89 93 90 91 93 94 96 94 94 94
87 90 93 94 99 96 99 86 84 82 87 79 74 80 82 84 88 91 92 92 95 93 91 90 92 94 89 94 94 96 93 95 89
96 98 99 98 98 99 91 83 88 82 83 86 79 77 81 87 90 94 93 90 97 97 93 93 96 90 81 86 76 90 87 93 78
99 99 99 99 97 80 74 77 79 83 86 82 75 74 94 99 98 96 84 90 95 93 83 83 80 81 76 76 80 86 86 82 78
98 99 100 97 88 90 92 90 86 83 84 85 80 96 100 99 99 99 95 90 95 91 86 88 81 78 66 87 86 86 80 81 83
99 100 82 86 85 85 90 94 94 90 89 89 93 93 98 100 98 100 95 91 93 91 85 81 80 77 76 90 85 80 80 84 75
99 94 91 90 92 91 88 86 90 89 90 92 90 94 94 97 99 100 100 95 90 90 88 82 79 82 85 87 75 74 77 80 75
89 90 92 92 94 92 93 94 93 95 96 97 96 96 98 93 94 91 96 99 99 94 87 89 86 84 87 87 86 81 76 78 78
83 88 91 89 88 87 88 94 96 97 97 97 99 100 99 100 99 96 88 91 99 100 100 94 90 90 87 91 88 87 78 77 80
81 83 89 91 86 87 91 93 95 96 97 97 98 97 96 96 97 98 99 97 92 99 93 99 98 98 96 93 85 83 85 84 86
84 80 88 89 85 87 90 92 91 91 89 87 85 88 90 93 93 96 98 100 100 97 92 97 99 100 98 98 99 99 99 99 98
80 76 89 90 87 87 90 90 85 82 75 69 67 69 70 74 84 90 93 92 93 95 93 89 93 98 99 99 99 98 98 98 96
74 76 89 91 88 91 91 86 78 70 63 61 57 56 58 62 65 69 79 85 86 83 89 91 88 85 98 100 99 97 98 99 97
71 72 86 91 90 91 89 81 74 60 61 63 46 43 46 51 50 55 61 68 72 78 79 90 97 97 93 96 99 99 98 97 98
60 61 76 89 90 90 85 78 68 59 60 57 49 55 42 40 38 38 42 48 59 68 70 74 80 94 96 100 100 100 98 99 100
49 58 63 84 86 87 83 76 73 64 62 61 46 60 60 44 41 42 37 34 37 44 53 62 68 76 94 99 99 100 99 100 99
49 51 56 67 82 84 80 76 75 74 68 55 27 33 32 57 52 47 49 42 39 41 41 37 45 67 81 91 94 94 96 98 98
45 45 51 56 67 78 77 76 74 72 63 44 32 31 36 33 43 61 54 50 51 48 44 42 39 49 84 89 89 89 93 91 91
Wind_Speed
25 26 27 31 32 31 24 22 22 23 24 25 24 22 22 23 22 21 19 21 21 20 21 21 20 21 22 21 21 21 20 20 21
24 22 23 23 21 24 24 21 22 22 24 25 25 24 23 24 23 22 21 20 20 19 20 21 18 20 21 22 20 21 20 20 20
29 28 28 27 26 25 23 24 26 27 26 24 24 26 25 24 23 21 20 19 18 17 19 20 21 21 21 20 20 20 20 19 21
29 30 29 27 26 24 24 26 26 28 26 25 24 25 26 27 24 21 18 18 18 17 19 18 18 18 18 18 19 20 21 22 22
32 33 31 28 28 27 24 26 26 27 25 27 26 25 27 27 24 21 17 17 17 17 17 17 16 16 17 16 18 19 20 21 22
34 31 30 29 27 25 24 24 25 26 27 26 25 25 27 27 25 20 16 16 15 15 15 14 15 15 14 16 16 18 18 19 18
34 31 30 30 30 28 26 25 26 26 26 26 26 28 28 28 26 20 17 15 14 13 14 13 14 14 13 16 17 16 17 17 17
32 28 26 27 27 29 29 29 29 29 29 29 29 29 28 29 30 27 20 16 13 12 12 12 13 12 14 16 17 17 16 17 16
28 27 26 26 25 25 25 27 28 28 27 27 26 26 28 28 28 31 26 23 13 11 10 11 12 13 14 16 18 17 17 17 15
29 26 25 25 23 24 25 26 26 26 24 23 23 23 23 21 21 22 25 26 28 12 9 9 10 13 15 17 18 18 18 17 14
26 26 25 24 23 23 23 24 26 27 26 26 25 24 22 21 20 19 18 20 27 30 25 7 8 11 16 17 18 18 17 14 13
29 27 26 26 23 24 25 26 27 28 28 28 26 24 22 21 19 17 18 21 25 28 29 36 16 15 18 18 15 14 12 10 7
31 30 30 29 27 27 28 28 28 28 27 26 25 24 21 21 20 20 20 25 26 30 32 33 31 29 23 21 24 26 24 22 17
30 31 33 32 30 28 29 30 29 29 27 25 22 20 19 19 18 18 18 19 20 22 21 23 28 30 21 23 23 23 22 21 19
30 31 33 33 33 32 31 30 30 29 29 27 23 19 17 16 16 15 14 15 15 16 17 18 18 18 28 24 23 24 24 24 22
30 30 31 32 32 33 32 32 31 29 29 25 23 19 16 15 14 12 11 10 10 10 13 16 18 21 23 24 19 19 18 16 18
30 30 30 31 33 32 33 35 34 30 19 11 10 3 5 13 14 11 11 10 8 8 9 9 12 14 16 22 21 18 18 18 19
31 30 29 29 31 32 32 32 32 28 16 22 6 3 3 4 8 12 11 10 9 10 8 7 7 9 12 16 19 20 17 15 14
31 28 27 26 27 29 30 28 25 25 22 18 6 6 12 3 2 6 10 9 9 10 10 9 9 8 9 11 15 14 14 14 14
30 30 28 27 26 27 26 23 19 20 21 16 14 13 8 9 5 3 4 7 8 7 7 8 8 8 9 10 11 13 14 12 12
Wind_Direction
129 125 119 114 109 112 109 109 109 112 106 105 104 102 100 97 96 100 102 99 100 102 102 99 99 102 100 96 92 93 94 95 97
126 131 130 123 118 110 110 102 105 110 113 107 100 101 104 97 93 96 100 102 103 104 100 98 103 111 104 96 93 94 96 98 98
127 125 121 121 116 111 116 110 114 114 113 110 106 101 101 98 89 92 96 100 98 104 104 100 95 104 98 95 95 94 94 100 101
127 126 125 123 118 117 113 112 117 116 114 111 108 107 103 98 92 89 93 98 99 102 106 102 97 100 99 95 98 97 93 104 103
126 121 119 118 117 113 119 118 116 116 115 109 111 108 103 96 92 86 87 92 97 100 104 104 102 101 99 97 100 102 101 108 105
129 127 123 118 117 124 127 125 120 117 114 114 111 107 96 91 86 81 85 87 93 102 105 104 108 107 102 102 103 110 107 105 108
133 129 124 120 120 120 119 118 119 119 114 109 108 101 98 90 85 80 85 88 91 101 105 107 110 109 104 107 108 113 108 108 107
136 136 127 123 119 115 114 113 112 113 109 102 101 101 97 94 90 82 82 83 90 98 105 111 113 110 111 112 108 111 110 106 107
138 134 132 130 127 122 121 117 114 111 108 108 106 99 96 94 94 87 90 81 78 93 111 114 116 116 121 121 113 107 107 106 106
138 134 135 134 134 129 122 120 117 112 109 105 103 101 98 95 93 95 89 86 74 76 104 118 128 128 129 127 128 123 115 108 104
146 140 138 138 139 134 130 126 121 113 109 103 98 96 94 92 88 89 94 98 92 75 67 79 160 140 135 132 131 129 117 109 104
158 152 148 146 146 142 137 129 122 116 111 106 101 95 92 87 85 82 84 97 105 93 82 65 133 133 129 127 129 127 121 110 101
161 156 153 152 151 147 141 136 127 118 112 105 98 96 94 92 89 89 89 87 90 91 88 85 83 75 95 105 104 105 104 100 92
164 157 154 155 155 152 147 138 135 127 118 109 101 93 89 88 90 90 88 83 80 79 80 89 92 86 81 87 92 92 92 90 89
165 157 157 159 158 156 152 146 137 132 125 114 101 91 86 84 80 81 86 86 85 83 90 87 92 100 90 78 86 91 88 84 84
165 160 161 165 164 161 157 151 145 131 129 115 98 82 79 75 67 67 72 77 79 82 81 91 95 102 109 100 83 85 87 83 82
166 163 165 169 166 165 165 160 148 144 145 137 122 127 80 67 62 63 66 67 73 77 80 86 89 95 102 99 98 90 89 86 77
170 167 167 173 173 171 170 167 161 157 164 163 141 124 167 121 67 67 72 71 71 75 78 82 90 96 105 109 105 95 82 76 73
171 171 170 174 175 173 172 173 177 175 167 170 172 143 140 151 137 83 79 85 78 74 80 84 92 102 112 121 106 93 75 67 64
173 171 172 173 175 176 177 180 185 186 178 178 153 138 136 125 136 143 127 91 79 77 74 81 98 111 118 126 113 106 70 59 52